sat.trackr.live / text

‹ back to catalog

STARLINK-32113

NORAD 60282 · 2024-132E

PAYLOAD ACTIVE UNKNOWN

§ Identity

Operator
Country
US
Launch date
2024-07-28
Launch site
AFETR
Launch vehicle
Mass (kg)
RCS (m²)

Purposes: comms

External: N2YO · Heavens-Above · Gunter

§ Orbital elements

Epoch: 2026-09-21T14:12:25.127136Z

Period
93.85 min
Inclination
53.1583°
Eccentricity
0.0001592
Mean motion
15.34384204 rev/d
Perigee alt
461.7 km
Apogee alt
463.8 km
Semi-major
6,840.9 km
B*
7.6623e-6
RAAN
220.3779°
Arg perigee
91.6258°
Mean anomaly
268.4927°
Rev number
12,158

§ Raw data

STARLINK-321131 60282U 24132E   26264.59195749 -.00000118  00000+0  76623-5 0  99982 60282  53.1583 220.3779 0001592  91.6258 268.4927 15.34384204121582

JSON: /api/v1/satellites/60282 · /tle

For live sub-satellite position, see the globe view (requires WebGL).

§ Visibility from observer

Set your observer location to see the next 7 days of passes ≥ 10°. The values pass through the URL so the page stays shareable.

No JS? Fill the form by hand. The geolocation button needs JavaScript.